Flag for Comoros Weather past 2 weeks in Mutsamudu, Comoros

Now
77 °F

Mostly cloudy.


Feels Like: 79 °F
Forecast: 72 / 76 °F
Wind: 5 mph from North

Location: Dzaoudzi / Pamanzi Mayotte

Current Time: Aug 30, 2015 at 8:01:31 PM

Latest Report: Aug 30, 2015 at 7:30 PM


Visibility: N/A

Pressure: 30.04 "Hg

Humidity: 74%

Dew point: 68 °F

Location of MutsamuduLocation

Historic Weather in Mutsamudu — Graph

°F

Mutsamudu temperature yesterday

Maximum temperature yesterday: 82 °F (at 8:30 AM)
Minimum temperature yesterday: 72 °F (at 2:30 AM)
Average temperature yesterday: 77 °F

Past Weeks' High & Low Weather Summary

 TemperatureHumidityPressure
High86 °F (Aug 28, 10:00 AM)94% (Aug 20, 3:00 AM)30.12 "Hg (Aug 20, 3:00 AM)
Low68 °F (Aug 20, 3:00 AM)55% (Aug 18, 1:00 PM)29.95 "Hg (Aug 18, 2:00 PM)
Average77 °F72%30.04 "Hg
* Reported Aug 15 7:00 PM — Aug 30 7:00 PM, Mutsamudu, Weather by CustomWeather, © 2015

Note: Actual official high and low records may vary slightly from our data, if they occured in-between our weather recording intervals... More about our weather records

Advertising

Mutsamudu weather history for previous 24 hours

 ConditionsComfort  
Time TempWeatherWind HumidityBarometerVisibility
7:00 PM
Sun, Aug 30
77 °FPassing clouds.6 mph74%30.04 "HgN/A
6:30 PM77 °FPartly cloudy.6 mph74%30.04 "HgN/A
6:00 PM79 °FPassing clouds.7 mph70%30.01 "HgN/A
5:30 PM79 °FBroken clouds.8 mph70%30.01 "HgN/A
5:00 PM79 °FBroken clouds.6 mph65%30.01 "HgN/A
4:30 PM81 °FScattered clouds.8 mph62%30.01 "HgN/A
4:00 PM82 °FPassing clouds.8 mph58%30.01 "HgN/A
3:30 PM82 °FPassing clouds.9 mph62%30.01 "HgN/A
3:00 PM81 °FScattered clouds.9 mph62%30.01 "HgN/A
2:30 PM82 °FScattered clouds.9 mph62%30.01 "HgN/A
2:00 PM82 °FScattered clouds.9 mph58%30.01 "HgN/A
1:30 PM84 °FBroken clouds.9 mph55%30.04 "HgN/A
1:00 PM82 °FBroken clouds.9 mph62%30.04 "HgN/A
12:35 PM84 °FBroken clouds.6 mph55%30.04 "HgN/A
12:00 PM84 °FPartly sunny.6 mph58%30.07 "HgN/A
11:30 AM81 °FBroken clouds.7 mph66%30.07 "HgN/A
11:00 AM79 °FBroken clouds.6 mph70%30.09 "HgN/A
10:30 AM77 °FBroken clouds.5 mph74%30.09 "HgN/A
10:00 AM75 °FSprinkles. Broken clouds.8 mph74%30.12 "HgN/A
9:30 AM81 °FPartly sunny.2 mph62%30.09 "HgN/A
9:04 AM79 °FBroken clouds.1 mph70%30.09 "HgN/A
8:30 AM79 °FPartly sunny.3 mph70%30.09 "HgN/A
8:00 AM77 °FBroken clouds.1 mph74%30.07 "HgN/A
7:30 AM77 °FBroken clouds.3 mph79%30.07 "HgN/A
7:00 AM77 °FBroken clouds.5 mph79%30.07 "HgN/A
6:30 AM75 °FPartly sunny.6 mph83%30.07 "HgN/A
6:00 AM75 °FPassing clouds.3 mph83%30.04 "HgN/A
5:30 AM73 °FPassing clouds.2 mph83%30.04 "HgN/A
5:00 AM73 °FPassing clouds.No wind83%30.04 "HgN/A
4:30 AM73 °FMild.No wind83%30.04 "HgN/A
4:00 AM75 °FMild.6 mph78%30.04 "HgN/A
3:30 AM75 °FMild.3 mph83%30.04 "HgN/A
3:00 AM73 °FMild.5 mph89%30.04 "HgN/A
2:30 AM72 °FMild.No wind88%30.04 "HgN/A
2:00 AM72 °FMild.No wind88%30.04 "HgN/A
1:30 AM72 °FPassing clouds.No wind88%30.04 "HgN/A
1:00 AM73 °FMild.2 mph83%30.07 "HgN/A
12:00 AM75 °FMild.7 mph78%30.07 "HgN/A
11:30 PM
Sat, Aug 29
73 °FMild.2 mph83%30.09 "HgN/A
11:00 PM73 °FMild.2 mph83%30.09 "HgN/A
10:30 PM73 °FMild.2 mph83%30.09 "HgN/A
10:00 PM73 °FMild.1 mph83%30.09 "HgN/A
9:30 PM73 °FMild.1 mph78%30.09 "HgN/A
9:00 PM73 °FMild.2 mph78%30.07 "HgN/A
8:30 PM75 °FMild.2 mph74%30.07 "HgN/A
8:00 PM75 °FMild.2 mph78%30.07 "HgN/A
Weather by CustomWeather, © 2015

See weather overviewHow to use our weather pages